UMKA 1 (RS40S)

Last updated on Mon Sep 21 2026 00:03:14 GMT+0000 (Coordinated Universal Time)

1 57172U 23091G 26263.59992125 .00003763 00000+0 16892-3 0 9995 2 57172 97.4952 321.9390 0013507 141.1158 219.1053 15.21722412178514
UTC large
Height (km)
Speed (km/s)
/
Latitude / Longitude
Inclination (degrees)
Orbital Period (minutes)
Azimuth
Elevation
Range (km)
Doppler Factor

Next 0 passes for location: London (51.5072 / 0.1276)

No passes found over London.
UMKA 1 (RS40S)